Regional Weather Roundup
Issued by NWS Cleveland, OH

Home | Current Version | Previous Version | Graphics & Text | Print | Product List | Glossary On
Versions: 1 2 3 4 5 6 7 8 9 10 11 12 13 14 15 16 17 18 19 20 21 22 23 24 25 26 27 28 29 30 31 32 33 34 35 36 37 38 39 40 41 42 43 44 45 46 47 48 49 50
609
ASUS41 KCLE 092210
RWRCLE
OHIO REGIONAL WEATHER ROUNDUP
NATIONAL WEATHER SERVICE CLEVELAND, OH
500 PM EST TUE FEB 09 2016

NOTE: "FAIR" INDICATES FEW OR NO CLOUDS BELOW 12,000 FEET WITH NO
SIGNIFICANT WEATHER AND/OR OBSTRUCTIONS TO VISIBILITY.

OHZ001>008-015>018-024>027-034-035-043-044-092300-
   NORTHWEST OHIO

CITY           SKY/WX    TMP DP  RH WIND       PRES   REMARKS
DEFIANCE       CLOUDY    29  19  66 NW12      29.72R WCI  19
FINDLAY        CLOUDY    30  20  66 W23       29.69R WCI  17
TOLEDO EXPRESS CLOUDY    28  19  69 W17G26    29.68R WCI  16
TOLEDO EXEC    CLOUDY    29  20  69 W23       29.68R WCI  15
LIMA           CLOUDY    25  21  85 W20G26    29.71R WCI  11
$$

OHZ009>014-019>023-028>033-038-089-092300-
   NORTHEAST OHIO

CITY           SKY/WX    TMP DP  RH WIND       PRES   REMARKS
CLE-HOPKINS    SNOW      30  26  85 W10       29.65R VSB 1/2 WCI  21
CLE-LAKEFRONT  LGT SNOW  31  28  89 W21       29.62R VSB 1   WCI  18
CUY CO. ARPT   LGT SNOW  32  28  86 W14       29.61R WCI  22
LORAIN-ELYRIA  LGT SNOW  29  24  82 W10       29.64R WCI  20
ASHTABULA      FLURRIES  31  26  82 W14       29.58R WCI  21
AKRON-CANTON   LGT SNOW  28  22  78 W13       29.62R WCI  17
WOOSTER        CLOUDY    27  22  81 W15       29.64R WCI  15
MANSFIELD      LGT SNOW  26  23  88 W8        29.64R FOG     WCI  18
YOUNGSTOWN     LGT SNOW  29  24  82 W15       29.60R WCI  18
$$

OHZ042-051>053-060>062-070>072-077>081-092300-
  SOUTHWEST OHIO

CITY           SKY/WX    TMP DP  RH WIND       PRES   REMARKS
CINC-COVINGTON CLOUDY    24  16  71 W13       29.82R HAZE    WCI  12
CINC-LUNKEN    SNOW      24  21  88 W8        29.87R VSB 1/2 WCI  15
HAMILTON       LGT SNOW  24  19  81 W10       29.84R WCI  14
DAYTON         FLURRIES  24  19  81 W18       29.77R WCI  10
WRIGHT-PAT AFB CLOUDY    25  18  74 W16G22    29.77R WCI  12
DAYTON GENERAL CLOUDY    24  16  71 W10       29.77R WCI  14
WILMINGTON     LGT SNOW  22  17  81 W18       29.77R WCI   7
$$

OHZ036-037-039>041-045>050-054>059-063>069-073>076-082>088-092300-
  CENTRAL AND SOUTHEAST OHIO

CITY           SKY/WX    TMP DP  RH WIND       PRES   REMARKS
COLUMBUS       LGT SNOW  25  19  80 W10       29.74R WCI  15
OSU AIRPORT    LGT SNOW  25  20  81 W15       29.73R WCI  13
BOLTON FIELD   SNOW      25  21  86 W10G17    29.75R VSB 1/2 WCI  15
RICKENBACK AFB LGT SNOW  24  21  90 SW12      29.75R WCI  13
NEWARK         LGT SNOW  26  20  77 MISG      29.72R
MARION         LGT SNOW  27  20  75 W14       29.69R WCI  16
LANCASTER      CLOUDY    24  19  81 SW10      29.75R WCI  14
ZANESVILLE     CLOUDY    27  20  75 W10       29.71R WCI  17
NEW PHILLY     CLOUDY    26  22  84 SW5       29.68R FOG     WCI  20
$$




USA.gov is the U.S. government's official web portal to all federal, state and local government web resources and services.